Air Resources Laboratory banner image
Air Resources Laboratory web site National Oceanic and Atmospheric Administration (NOAA)

va roundup


Office: AKQ

ASUS41 KAKQ 212015
RWRAKQ

REGIONAL WEATHER ROUNDUP
NATIONAL WEATHER SERVICE WAKEFIELD VA
300 PM EST WED NOV 21 2018

Note: "fair" indicates few or no clouds below 12,000 feet with no
significant weather and/or obstructions to visibility. * = Denotes
station may not report precipitation (e.g., rain,snow,etc.),
thunder or fog.

VAZ042-051-052>054-056-212100-
NORTHERN VIRGINIA

CITY           SKY/WX    TMP DP  RH WIND       PRES   REMARKS
WASH NATIONAL  FAIR      55  27  34 W7        30.10S
DULLES         FAIR      53  28  38 NW13      30.09S
FORT BELVOIR   FAIR      53  31  43 W9        30.09S
QUANTICO       FAIR      55  27  34 NW14      30.10F
FREDERICKSBRG* FAIR      55  29  37 W9        30.09S
STAFFORD*      FAIR      55  26  32 SW7       30.13S
WARRENTON      FAIR      55  22  27 SW7       30.08F
CULPEPER*      FAIR      55  24  30 CALM      30.10S
MANASSAS*      FAIR      54  27  35 W7        30.09F
LEESBURG*      FAIR      52  32  46 N21G26    30.11R
WINCHESTER     PTSUNNY   45  30  57 NW17      30.13R
FRONT ROYAL*   FAIR      50  30  46 MISG      30.09R
LURAY*         FAIR      52  28  40 NW7G25    30.09R
$$

VAZ048-049-060>072-079>083-212100-
CENTRAL AND SOUTH CENTRAL VIRGINIA

CITY           SKY/WX    TMP DP  RH WIND       PRES   REMARKS
RICHMOND       FAIR      55  27  34 W10       30.12S
CHESTERFIELD*  FAIR      54  28  36 W6        30.12F
PETERSBURG*    FAIR      55  25  32 W9        30.13S
HANOVER        FAIR      55  25  31 W8        30.12F
TAPPAHANNOCK*  FAIR      54  28  36 SW7       30.10F
QUINTON*       FAIR      54  28  36 W5        30.11F
CHARLOTTSVILLE FAIR      57  25  29 SW8       30.08F
GORDONSVILLE*  FAIR      56  26  31 W7        30.08F
ORANGE*        FAIR      54  27  35 SW8       30.09F
LOUISA*        FAIR      54  25  32 W6        30.14S
BUMPASS*       FAIR      54  22  28 W7        30.10S
FARMVILLE*     FAIR      55  26  32 W5        30.11F
CREWE*         FAIR      53  22  30 SW5       30.13S
FORT PICKETT*  FAIR      55  27  34 W9        30.13F
CHASE CITY*    FAIR      54  26  34 W5        30.14F
CLARKSVILLE*   FAIR      54  28  37 W8        30.15F
SOUTH HILL*    FAIR      53  28  38 W5        30.20S
LAWRENCEVILLE* FAIR      54  26  35 MISG      30.14S
EMPORIA*       FAIR      54  30  40 SW5       30.16S
$$

VAZ088>098-212100-
SOUTHEAST VIRGINIA

CITY           SKY/WX    TMP DP  RH WIND       PRES   REMARKS
NORFOLK        FAIR      54  32  43 W6        30.11F
VIRGINIA BEACH FAIR      53  32  44 W9        30.11S
NORFOLK NAVAL  FAIR      53  31  42 W10G18    30.13S
WEST POINT*    FAIR      54  31  42 W9        30.13S
SALUDA*        FAIR      53  31  43 W5        30.10F
NEWPORT NEWS   FAIR      53  31  42 W10       30.12S
LANGLEY AFB    FAIR      53  32  44 W12       30.12S
FORT EUSTIS    FAIR      54  31  42 W8        30.10S
WILLIAMSBURG*  FAIR      55  32  41 W9        30.13S
HR EXEC AP*    FAIR      54  31  41 W9        30.13F
FRANKLIN*      FAIR      54  30  40 W8        30.14S
US460-WAKEFLD  FAIR      54  30  40 W9        30.13S
$$

VAZ020-022-025-037-045-212100-
WEST CENTRAL AND SOUTHWEST VIRGINIA

CITY           SKY/WX    TMP DP  RH WIND       PRES   REMARKS
STAUNTON*      FAIR      53  27  35 W9        30.11R
WAYNESBORO*    FAIR      52  25  34 W12       30.09S
HOT SPRINGS VA FAIR      40  31  68 NW17G26   30.08S
LYNCHBURG      FAIR      54  25  32 W8        30.13F
DANVILLE       FAIR      56  25  30 SW9       30.16F
SOUTH BOSTON*  FAIR      56  23  28 SW5       30.15F
MARTINSVILLE   FAIR      59  27  29 NW5       30.18S
ROANOKE        FAIR      53  26  35 NW17G24   30.17S
BLACKSBURG     FAIR      47  27  45 W12G17    30.20S
DUBLIN*        FAIR      49  29  45 NW15      30.18F
MARION*        FAIR      47  32  55 W10       30.22S
HILLSVILLE*    FAIR      46  27  47 W14       30.16R
RICHLANDS*     FAIR      43  22  44 NW7       30.22S
WISE*          FAIR      46  30  53 NW7       30.24S
ABINGDON*      FAIR      47  27  45 W7        30.24S
$$

MDZ021>025-VAZ099-100-212100-
SOUTHERN MARYLAND AND THE DELMARVA PENINSULA

CITY           SKY/WX    TMP DP  RH WIND       PRES   REMARKS
PATUXENT RIVER FAIR      50  30  46 W16       30.09S
BAY BRIDGE APT FAIR      52  30  43 W8        30.08S
LEONARDTOWN    FAIR      52  30  43 W13       30.10S
DOVER          FAIR      51  29  43 W12G23    30.06S
GEORGETOWN     FAIR      53  31  42 W9        30.07F
EASTON         SUNNY     52  30  43 W7        30.12S
CAMBRIDGE      SUNNY     52  28  40 W9        30.09S
SALISBURY      FAIR      50  33  52 W13       30.08F
TANGIER        FAIR      52  36  54 SW12      30.09F
OCEAN CITY     FAIR      50  31  48 W13G18    30.08F
WALLOPS ISLAND FAIR      51  31  46 W8G18     30.10F
ACCOMACK*      FAIR      51  34  52 W10       30.11S
$$

NCZ012>017-030>032-212100-
NORTH CENTRAL AND EASTERN NORTH CAROLINA

CITY           SKY/WX    TMP DP  RH WIND       PRES   REMARKS
ROANOKE RAPIDS FAIR      55  28  35 W8        30.14F
RALEIGH        FAIR      56  27  32 NW10      30.16F
ELIZABETH CITY FAIR      55  35  47 W8        30.13F
AHOSKIE*       FAIR      54  30  39 W5        30.14F
EDENTON*       FAIR      56  37  47 W7        30.14F
CURRITUCK*     FAIR      54  36  51 MISG      30.13S
KILL DEVIL HLS FAIR      52  37  57 W7        30.11F
MANTEO         FAIR      53  38  58 NW8       30.13F
CAPE HATTERAS  FAIR      57  42  57 NW5       30.13F
TARBORO*       FAIR      56  31  37 W8        30.14F
GOLDSBORO      FAIR      59  32  36 W7        30.14F
WASHINGTON     FAIR      57  31  37 NW9       30.15S
GREENVILLE     FAIR      55  32  41 W7        30.16F
NEW BERN       FAIR      59  39  47 W10G17    30.15S
WILMINGTON     FAIR      61  38  42 NW12      30.15F
$$

VAZ048-212100-
ELSEWHERE

CITY           SKY/WX    TMP DP  RH WIND       PRES   REMARKS
HARRISBURG PA  CLOUDY    42  27  55 NW21      30.10R
BALTIMORE      FAIR      51  28  41 W15       30.08R
ANNAPOLIS      FAIR      54  27  35 NW10G21   30.08S
ANDREWS AFB    FAIR      52  24  34 W10       30.08R
PHILADELPHIA   PTSUNNY   47  26  44 W17G26    30.06R
HENDERSON NC   FAIR      52  23  32 W5        30.15F
GREENSBORO     FAIR      56  24  29 W9        30.16F
ROCKY MOUNT    FAIR      56  31  38 SW6       30.15F
$$

VAZ100-212100-
MARINE

STATION/POSITION TIME  TEMP    WIND        PRES    WAVE   SWELL
                       AIR SEA DIR/SP/G            HT/PER HT/PER
                 (UTC) (F)     (DEG/KT/KT) (MB)    (FT/S) (FT/S)
BRANDYWINE LGT   1948                      1018.2F
CAPE MAY NJ      1948   49 48  300/ 13/ 17 1017.5S
LEWES DE         1948   51 52  270/ 11/ 15 1017.9F
15NM E FENWICK I 1950      56              1018.3F   2/ 4
OCEAN-CITY-INLET 1948   51 51  250/  9/ 13 1019.0F
WACHAPREAGUE VA  1948   51 51  240/  7/ 11 1019.5F
THOMAS POINT MD  2000   51 50  270/ 12/ 15 1019.5R
GOOSES REEF MD   2000   52 51              1019.4
COVE POINT MD    1948   51     300/  6/ 11 1019.4F
SOLOMONS ISLAND  1948   52 52  250/ 13/ 17 1018.7F
BISHOPS HEAD MD  1948   49 49  230/ 10/ 13 1019.2F
PINEY POINT MD   1936          290/  8/  9   N/A
POTOMAC MD       1950   51     260/ 10/ 12 1018.2F
CAMBRIDGE MD     1942   51 48              1018.7S
LEWISETTA VA     1936   51 48  270/ 12/ 16 1018.8F
RAPPAHANNOCK LGT 1948          240/  9/ 11 1020.4F
STINGRAY PT      2000   52 53  290/ 10/ 14 1020.4    0
YORK RVR RNG VA  1948   52     280/ 13/ 15 1020.1S
YORKTOWN VA      1948   52 54  270/ 12/ 14 1019.4F
DOMINION TERM VA 1936   53     260/  9/ 12 1020.1F
KIPTOPEKE VA     1948      55  280/ 11/ 13   N/A
CAPE HENRY VA    1948   53     270/  8/ 11 1018.1F
WILLOUBY STN VA  1936   52     250/ 11/ 14 1019.0F
S CRANEY ISL VA  1948   53     280/  9/ 11 1019.7F
CAPE HENRY BUOY  2000      58                N/A     2/10
1ST LANDING BUOY 1950   51     290/ 14/ 17 1019.7F
64NM E OF VA BCH 1950   51 60  270/ 14/ 16 1020.2F   2/ 9   2/ 9
DUCK PIER NC     1948   52 58  250/ 10/ 14 1019.7F
44100 DUCK FRF   1945      60                N/A     2/14   2/14
OREGON INLET NC  1936   53 57  310/  7/  9 1020.0F
HATTERAS NC      1948   54 63  280/ 14/ 16 1019.8F
DIAMOND SHLS NC  2000   57 72  300/ 14/ 17 1020.5
CAPE LOOKOUT NC  2000          290/ 12/ 13 1020.5F
$$